Regional Weather Roundup
Issued by NWS Green Bay, WI

Home | Current Version | Previous Version | Text Only | Print | Product List | Glossary On
Versions: 1 2 3 4 5 6 7 8 9 10 11 12 13 14 15 16 17 18 19 20 21 22 23 24 25 26 27 28 29 30 31 32 33 34 35 36 37 38 39 40 41 42 43 44 45 46 47 48 49 50
533
ASUS43 KGRB 232100
RWRGRB

NORTH-CENTRAL AND NORTHEAST WISCONSIN REGIONAL WEATHER ROUNDUP
NATIONAL WEATHER SERVICE GREEN BAY WI
400 PM CDT MON APR 23 2018

WIZ005-009-010>012-018-019-232200-
NORTH CENTRAL WISCONSIN

CITY           SKY/WX    TMP DP  RH WIND       PRES   REMARKS
IRONWOOD       FAIR      62  28  27 W6        30.14F
MANITOWISH WTR NOT AVBL
ARBOR VITAE    NOT AVBL
EAGLE RIVER    FAIR      58  22  24 SW7       30.16F
LAND O LAKES   FAIR      63  22  20 SW3       30.17F
RHINELANDER    FAIR      63  25  23 W5        30.17F
PHILLIPS       FAIR      62  30  30 CALM      30.16F
ANTIGO         NOT AVBL
TOMAHAWK       NOT AVBL
MERRILL        NOT AVBL
$$

WIZ013-073-232200-
NORTHEAST WISCONSIN

CITY           SKY/WX    TMP DP  RH WIND       PRES   REMARKS
IRON MOUNTAIN  FAIR      67  20  16 S3        30.14F
MARINETTE      FAIR      61  26  26 SE7       30.19F
$$

WIZ017-030-035>037-045-232200-
CENTRAL WISCONSIN

CITY           SKY/WX    TMP DP  RH WIND       PRES   REMARKS
MEDFORD        NOT AVBL
WAUSAU         FAIR      63  24  22 SW5       30.15F
MOSINEE        MOSUNNY   63  27  25 VRB3      30.18F
MARSHFIELD     FAIR      62  23  22 SE5       30.16F
WISC RAPIDS    FAIR      65  26  23 NE10      30.17F
STEVENS POINT  NOT AVBL
WAUPACA        FAIR      65  22  19 CALM      30.18S
SHAWANO        FAIR      62  26  24 NE5       30.18F
CLINTONVILLE   FAIR      61  20  20 CALM      30.18F
WAUTOMA        FAIR      64  23  21 E6        30.17F
$$

WIZ038-039-048-051-232200-
FOX VALLEY

CITY           SKY/WX    TMP DP  RH WIND       PRES   REMARKS
NWS GREEN BAY  FAIR      62  30  29 E9        30.18F
APPLETON       SUNNY     63  21  20 N7        30.16R
OSHKOSH        FAIR      59  32  36 N9        30.17F
FOND DU LAC    FAIR      62  32  32 NE12      30.16F
$$

WIZ022-050-052-232200-
EAST CENTRAL WISCONSIN

CITY           SKY/WX    TMP DP  RH WIND       PRES   REMARKS
EPHRAIM        NOT AVBL
WASHINGTON ISL NOT AVBL
STURGEON BAY   NOT AVBL
MANITOWOC      NOT AVBL
SHEBOYGAN      FAIR      60  30  32 NE13      30.16F
$$

LMZ563-521-522-541>543-232200-
LAKESHORE

STATION/POSITION TIME  TEMP    WIND        PRES    VSBY  WAVE
                       AIR SEA DIR/SP/G                  HT/PER
                 (UTC) (F)     (DEG/KT/KT) (MB)    (MI)  (FT/S)
SHEBOYGAN LKSHOR 2000   45      10/ 10/ 11 1022.4F
KEWAUNEE LKSHORE 2006   48      30/  5/  6 1021.9
NORTHPORT PIER   2040   41                 1022.4F
SISTER BAY LKSHO 2027   58        CALM       N/A
MENOMINEE LKSHOR 2006   44     160/  6/  7 1022.3
$$




USA.gov is the U.S. government's official web portal to all federal, state and local government web resources and services.